| time (UTC) | temp C | wind direction | speed KPH | gust KPH | rain 1hr cm | rain 24hr cm | rain mn cm | humidity % | barometer mb |
| 20260901225054 | 23 | 310 | 8.0 | 17.7 | 0.00 | 0.00 | 0.00 | 70 | 1013.5 |
| 20260901224555 | 23 | 227 | 8.0 | 17.7 | 0.00 | 0.00 | 0.00 | 70 | 1013.5 |
| 20260901224054 | 23 | 252 | 8.0 | 19.3 | 0.00 | 0.00 | 0.00 | 71 | 1013.6 |
| 20260901223556 | 22 | 327 | 9.7 | 19.3 | 0.00 | 0.00 | 0.00 | 70 | 1013.5 |
| 20260901223100 | 23 | 245 | 11.3 | 20.9 | 0.00 | 0.00 | 0.00 | 69 | 1013.6 |
| 20260901222557 | 23 | 159 | 12.9 | 24.1 | 0.00 | 0.00 | 0.00 | 66 | 1013.5 |
| 20260901222057 | 23 | 187 | 9.7 | 24.1 | 0.00 | 0.00 | 0.00 | 69 | 1013.7 |
| 20260901221612 | 23 | 169 | 12.9 | 22.5 | 0.00 | 0.00 | 0.00 | 68 | 1013.6 |
| 20260901221055 | 23 | 222 | 9.7 | 22.5 | 0.00 | 0.00 | 0.00 | 69 | 1013.6 |
| 20260901220557 | 23 | 218 | 9.7 | 20.9 | 0.00 | 0.00 | 0.00 | 70 | 1013.6 |
| 20260901220059 | 23 | 163 | 9.7 | 20.9 | 0.00 | 0.00 | 0.00 | 69 | 1013.7 |
| 20260901215556 | 23 | 177 | 9.7 | 19.3 | 0.00 | 0.00 | 0.00 | 69 | 1013.8 |
| 20260901215055 | 23 | 211 | 11.3 | 25.7 | 0.00 | 0.00 | 0.00 | 69 | 1013.9 |
| 20260901214555 | 23 | 250 | 11.3 | 25.7 | 0.00 | 0.00 | 0.00 | 69 | 1013.9 |
| 20260901214055 | 23 | 194 | 11.3 | 19.3 | 0.00 | 0.00 | 0.00 | 69 | 1013.9 |
| 20260901213556 | 23 | 243 | 9.7 | 19.3 | 0.00 | 0.00 | 0.00 | 69 | 1014.0 |
| 20260901213105 | 23 | 274 | 8.0 | 16.1 | 0.00 | 0.00 | 0.00 | 69 | 1014.0 |
| 20260901212555 | 23 | 284 | 6.4 | 14.5 | 0.00 | 0.00 | 0.00 | 69 | 1014.0 |
| 20260901212055 | 23 | 183 | 6.4 | 19.3 | 0.00 | 0.00 | 0.00 | 69 | 1013.9 |
| 20260901211557 | 23 | 296 | 11.3 | 19.3 | 0.00 | 0.00 | 0.00 | 69 | 1014.1 |
| 20260901211054 | 23 | 274 | 8.0 | 19.3 | 0.00 | 0.00 | 0.00 | 69 | 1014.1 |
| 20260901210555 | 23 | 271 | 6.4 | 19.3 | 0.00 | 0.00 | 0.00 | 69 | 1014.1 |
| 20260901210056 | 23 | 219 | 9.7 | 17.7 | 0.00 | 0.00 | 0.00 | 69 | 1014.1 |
| 20260901205555 | 23 | 202 | 9.7 | 17.7 | 0.00 | 0.00 | 0.00 | 69 | 1014.2 |
| 20260901205056 | 23 | 260 | 8.0 | 20.9 | 0.00 | 0.00 | 0.00 | 69 | 1014.3 |
| 20260901204607 | 23 | 271 | 8.0 | 20.9 | 0.00 | 0.00 | 0.00 | 70 | 1014.3 |
| 20260901204055 | 23 | 192 | 6.4 | 17.7 | 0.00 | 0.00 | 0.00 | 69 | 1014.4 |
| 20260901203558 | 23 | 189 | 9.7 | 17.7 | 0.00 | 0.00 | 0.00 | 70 | 1014.4 |
| 20260901203104 | 23 | 250 | 11.3 | 17.7 | 0.00 | 0.00 | 0.00 | 71 | 1014.2 |
| 20260901202555 | 23 | 161 | 8.0 | 17.7 | 0.00 | 0.00 | 0.00 | 70 | 1014.4 |
| 20260901202056 | 23 | 247 | 9.7 | 17.7 | 0.00 | 0.00 | 0.00 | 69 | 1014.4 |
| 20260901201600 | 23 | 217 | 6.4 | 17.7 | 0.00 | 0.00 | 0.00 | 70 | 1014.5 |
| 20260901201056 | 23 | 271 | 8.0 | 19.3 | 0.00 | 0.00 | 0.00 | 70 | 1014.5 |
| 20260901200554 | 23 | 248 | 9.7 | 19.3 | 0.00 | 0.00 | 0.00 | 71 | 1014.6 |
| 20260901200056 | 23 | 182 | 8.0 | 19.3 | 0.00 | 0.00 | 0.00 | 70 | 1014.7 |
| 20260901195554 | 23 | 309 | 8.0 | 19.3 | 0.00 | 0.00 | 0.00 | 71 | 1014.7 |
| 20260901195057 | 23 | 163 | 6.4 | 17.7 | 0.00 | 0.00 | 0.00 | 70 | 1014.6 |
| 20260901194602 | 23 | 189 | 4.8 | 17.7 | 0.00 | 0.00 | 0.00 | 71 | 1014.6 |
| 20260901194056 | 23 | 173 | 4.8 | 17.7 | 0.00 | 0.00 | 0.00 | 72 | 1014.7 |
| 20260901193555 | 22 | 194 | 9.7 | 17.7 | 0.00 | 0.00 | 0.00 | 71 | 1014.8 |
| 20260901193101 | 23 | 178 | 11.3 | 22.5 | 0.00 | 0.00 | 0.00 | 70 | 1014.9 |
| 20260901192558 | 23 | 242 | 8.0 | 22.5 | 0.00 | 0.00 | 0.00 | 71 | 1014.8 |
| 20260901192055 | 23 | 179 | 8.0 | 19.3 | 0.00 | 0.00 | 0.00 | 71 | 1014.9 |
| 20260901191600 | 23 | 195 | 8.0 | 16.1 | 0.00 | 0.00 | 0.00 | 70 | 1014.9 |
| 20260901191055 | 23 | 180 | 8.0 | 16.1 | 0.00 | 0.00 | 0.00 | 69 | 1014.9 |
| 20260901190555 | 23 | 259 | 6.4 | 16.1 | 0.00 | 0.00 | 0.00 | 69 | 1014.9 |
| 20260901190104 | 23 | 266 | 6.4 | 16.1 | 0.00 | 0.00 | 0.00 | 69 | 1014.9 |
| 20260901185555 | 23 | 259 | 4.8 | 17.7 | 0.00 | 0.00 | 0.00 | 70 | 1014.9 |
| 20260901185058 | 23 | 286 | 3.2 | 17.7 | 0.00 | 0.00 | 0.00 | 70 | 1014.8 |
| 20260901184605 | 23 | 119 | 6.4 | 16.1 | 0.00 | 0.00 | 0.00 | 70 | 1014.9 |
| 20260901184055 | 23 | 211 | 4.8 | 11.3 | 0.00 | 0.00 | 0.00 | 71 | 1014.8 |
| 20260901183555 | 23 | 138 | 3.2 | 12.9 | 0.00 | 0.00 | 0.00 | 71 | 1014.9 |
| 20260901183119 | 23 | 68 | 1.6 | 12.9 | 0.00 | 0.00 | 0.00 | 72 | 1014.8 |
| 20260901182555 | 22 | 212 | 1.6 | 11.3 | 0.00 | 0.00 | 0.00 | 73 | 1014.8 |
| 20260901182058 | 22 | 197 | 3.2 | 11.3 | 0.00 | 0.00 | 0.00 | 74 | 1014.9 |
| 20260901181558 | 22 | 286 | 4.8 | 11.3 | 0.00 | 0.00 | 0.00 | 74 | 1014.9 |
| 20260901181054 | 22 | 242 | 3.2 | 11.3 | 0.00 | 0.00 | 0.00 | 75 | 1014.9 |
| 20260901180554 | 22 | 0 | 4.8 | 12.9 | 0.00 | 0.00 | 0.00 | 74 | 1015.0 |
| 20260901180104 | 22 | 248 | 4.8 | 12.9 | 0.00 | 0.00 | 0.00 | 74 | 1015.0 |
| 20260901175557 | 22 | 192 | 4.8 | 11.3 | 0.00 | 0.00 | 0.00 | 74 | 1015.0 |
| 20260901175056 | 22 | 211 | 1.6 | 9.7 | 0.00 | 0.00 | 0.00 | 74 | 1015.0 |
| 20260901174603 | 22 | 205 | 3.2 | 12.9 | 0.00 | 0.00 | 0.00 | 74 | 1014.8 |
| 20260901174055 | 22 | 233 | 4.8 | 14.5 | 0.00 | 0.00 | 0.00 | 74 | 1014.9 |
| 20260901173558 | 22 | 205 | 3.2 | 14.5 | 0.00 | 0.00 | 0.00 | 75 | 1014.9 |
| 20260901173138 | 22 | 206 | 4.8 | 14.5 | 0.00 | 0.00 | 0.00 | 75 | 1014.9 |
| 20260901172557 | 21 | 242 | 1.6 | 11.3 | 0.00 | 0.00 | 0.00 | 76 | 1014.9 |
| 20260901172055 | 21 | 272 | 4.8 | 12.9 | 0.00 | 0.00 | 0.00 | 75 | 1014.9 |
| 20260901171605 | 22 | 227 | 6.4 | 12.9 | 0.00 | 0.00 | 0.00 | 74 | 1014.9 |
| 20260901171058 | 22 | 259 | 1.6 | 6.4 | 0.00 | 0.00 | 0.00 | 73 | 1014.8 |
| 20260901170555 | 22 | 211 | 3.2 | 6.4 | 0.00 | 0.00 | 0.00 | 74 | 1014.8 |
| 20260901165554 | 21 | 182 | 0.0 | 8.0 | 0.00 | 0.00 | 0.00 | 74 | 1014.8 |
| 20260901165058 | 21 | 198 | 1.6 | 8.0 | 0.00 | 0.00 | 0.00 | 75 | 1014.8 |
| 20260901164556 | 21 | 47 | 0.0 | 9.7 | 0.00 | 0.00 | 0.00 | 76 | 1014.9 |
| 20260901164055 | 21 | 0 | 0.0 | 9.7 | 0.00 | 0.00 | 0.00 | 76 | 1014.7 |
| 20260901163555 | 21 | 234 | 3.2 | 11.3 | 0.00 | 0.00 | 0.00 | 76 | 1014.8 |
| 20260901163119 | 21 | 170 | 1.6 | 11.3 | 0.00 | 0.00 | 0.00 | 77 | 1014.8 |
| 20260901162554 | 20 | 88 | 1.6 | 11.3 | 0.00 | 0.00 | 0.00 | 78 | 1014.8 |
| 20260901162055 | 20 | 298 | 1.6 | 9.7 | 0.00 | 0.00 | 0.00 | 78 | 1014.8 |
| 20260901161608 | 20 | 175 | 1.6 | 6.4 | 0.00 | 0.00 | 0.00 | 81 | 1014.7 |
| 20260901161055 | 20 | 105 | 0.0 | 8.0 | 0.00 | 0.00 | 0.00 | 82 | 1014.7 |
| 20260901160555 | 19 | 253 | 1.6 | 8.0 | 0.00 | 0.00 | 0.00 | 82 | 1014.8 |
| 20260901160107 | 19 | 158 | 4.8 | 8.0 | 0.00 | 0.00 | 0.00 | 82 | 1014.8 |
| 20260901155555 | 19 | 177 | 1.6 | 11.3 | 0.00 | 0.00 | 0.00 | 83 | 1014.8 |
| 20260901155055 | 19 | 164 | 4.8 | 14.5 | 0.00 | 0.00 | 0.00 | 83 | 1014.8 |
| 20260901154606 | 18 | 221 | 4.8 | 16.1 | 0.00 | 0.00 | 0.00 | 83 | 1014.6 |
| 20260901154058 | 18 | 261 | 6.4 | 16.1 | 0.00 | 0.00 | 0.00 | 84 | 1014.6 |
| 20260901153555 | 18 | 184 | 0.0 | 9.7 | 0.00 | 0.00 | 0.00 | 85 | 1014.6 |
| 20260901153105 | 18 | 165 | 3.2 | 9.7 | 0.00 | 0.00 | 0.00 | 84 | 1014.7 |
| 20260901152555 | 18 | 304 | 0.0 | 6.4 | 0.00 | 0.00 | 0.00 | 85 | 1014.7 |
| 20260901152055 | 18 | 0 | 0.0 | 6.4 | 0.00 | 0.00 | 0.00 | 86 | 1014.6 |
| 20260901151612 | 18 | 0 | 0.0 | 6.4 | 0.00 | 0.00 | 0.00 | 86 | 1014.5 |
| 20260901151055 | 18 | 180 | 0.0 | 0.0 | 0.00 | 0.00 | 0.00 | 87 | 1014.5 |
| 20260901150555 | 18 | 0 | 0.0 | 0.0 | 0.00 | 0.00 | 0.00 | 88 | 1014.4 |
| 20260901150103 | 18 | 0 | 0.0 | 0.0 | 0.00 | 0.00 | 0.00 | 89 | 1014.4 |
| 20260901145555 | 18 | 0 | 0.0 | 3.2 | 0.00 | 0.00 | 0.00 | 90 | 1014.2 |
| 20260901145055 | 17 | 0 | 0.0 | 3.2 | 0.00 | 0.00 | 0.00 | 90 | 1014.2 |
| 20260901144608 | 17 | 299 | 0.0 | 1.6 | 0.00 | 0.00 | 0.00 | 90 | 1014.1 |
| 20260901144058 | 17 | 0 | 0.0 | 0.0 | 0.00 | 0.00 | 0.00 | 91 | 1014.0 |
| 20260901143554 | 17 | 0 | 0.0 | 1.6 | 0.00 | 0.00 | 0.00 | 92 | 1013.9 |
| 20260901143105 | 17 | 0 | 0.0 | 1.6 | 0.00 | 0.00 | 0.00 | 92 | 1013.9 |
| 20260901142555 | 17 | 0 | 0.0 | 0.0 | 0.00 | 0.00 | 0.00 | 93 | 1013.8 |
| 20260901142055 | 16 | 0 | 0.0 | 0.0 | 0.00 | 0.00 | 0.00 | 93 | 1013.7 |
| 20260901141604 | 16 | 0 | 0.0 | 3.2 | 0.00 | 0.00 | 0.00 | 92 | 1013.8 |
| 20260901141058 | 16 | 0 | 0.0 | 3.2 | 0.00 | 0.00 | 0.00 | 93 | 1013.7 |
| 20260901140554 | 16 | 332 | 0.0 | 1.6 | 0.00 | 0.00 | 0.00 | 93 | 1013.7 |
| 20260901140104 | 16 | 0 | 0.0 | 3.2 | 0.00 | 0.00 | 0.00 | 93 | 1013.8 |
| 20260901135556 | 16 | 0 | 1.6 | 3.2 | 0.00 | 0.00 | 0.00 | 93 | 1013.8 |
| 20260901135056 | 16 | 0 | 0.0 | 4.8 | 0.00 | 0.00 | 0.00 | 92 | 1013.7 |
| 20260901134557 | 16 | 0 | 0.0 | 4.8 | 0.00 | 0.00 | 0.00 | 92 | 1013.6 |
| 20260901134055 | 16 | 338 | 0.0 | 3.2 | 0.00 | 0.00 | 0.00 | 92 | 1013.4 |
| 20260901133558 | 16 | 0 | 0.0 | 4.8 | 0.00 | 0.00 | 0.00 | 92 | 1013.6 |
| 20260901133059 | 16 | 336 | 0.0 | 4.8 | 0.00 | 0.00 | 0.00 | 92 | 1013.6 |
| 20260901132557 | 16 | 0 | 0.0 | 3.2 | 0.00 | 0.00 | 0.00 | 92 | 1013.6 |
| 20260901132054 | 16 | 0 | 0.0 | 6.4 | 0.00 | 0.00 | 0.00 | 92 | 1013.7 |
| 20260901131601 | 16 | 0 | 1.6 | 6.4 | 0.00 | 0.00 | 0.00 | 93 | 1013.6 |
| 20260901131057 | 16 | 346 | 1.6 | 6.4 | 0.00 | 0.00 | 0.00 | 93 | 1013.6 |
| 20260901130555 | 16 | 0 | 0.0 | 3.2 | 0.00 | 0.00 | 0.00 | 92 | 1013.4 |
| 20260901130106 | 16 | 0 | 0.0 | 3.2 | 0.00 | 0.00 | 0.00 | 92 | 1013.3 |
| 20260901125557 | 16 | 0 | 0.0 | 1.6 | 0.00 | 0.00 | 0.00 | 92 | 1013.3 |
| 20260901125055 | 16 | 0 | 0.0 | 0.0 | 0.00 | 0.00 | 0.00 | 92 | 1013.3 |
| 20260901124556 | 16 | 0 | 0.0 | 0.0 | 0.00 | 0.00 | 0.00 | 92 | 1013.3 |
| 20260901124054 | 16 | 0 | 0.0 | 0.0 | 0.00 | 0.00 | 0.00 | 92 | 1013.3 |
| 20260901123556 | 16 | 0 | 0.0 | 4.8 | 0.00 | 0.00 | 0.00 | 92 | 1013.2 |
| 20260901123101 | 16 | 0 | 0.0 | 4.8 | 0.00 | 0.00 | 0.00 | 92 | 1013.3 |
| 20260901122554 | 16 | 0 | 1.6 | 4.8 | 0.00 | 0.00 | 0.00 | 92 | 1013.3 |
| 20260901122056 | 16 | 0 | 0.0 | 0.0 | 0.00 | 0.00 | 0.00 | 92 | 1013.3 |
| 20260901121604 | 16 | 0 | 0.0 | 6.4 | 0.00 | 0.00 | 0.00 | 92 | 1013.3 |
| 20260901121055 | 16 | 0 | 0.0 | 6.4 | 0.00 | 0.00 | 0.00 | 92 | 1013.3 |
| 20260901120554 | 16 | 350 | 0.0 | 6.4 | 0.00 | 0.00 | 0.00 | 92 | 1013.4 |
| 20260901120105 | 16 | 0 | 0.0 | 0.0 | 0.00 | 0.00 | 0.00 | 92 | 1013.3 |
| 20260901115554 | 16 | 0 | 0.0 | 4.8 | 0.00 | 0.00 | 0.00 | 92 | 1013.3 |
| 20260901115058 | 16 | 0 | 0.0 | 4.8 | 0.00 | 0.00 | 0.00 | 92 | 1013.3 |
| 20260901114604 | 16 | 352 | 1.6 | 4.8 | 0.00 | 0.00 | 0.00 | 92 | 1013.2 |
| 20260901114059 | 16 | 348 | 0.0 | 4.8 | 0.00 | 0.00 | 0.00 | 92 | 1013.2 |
| 20260901113559 | 16 | 0 | 0.0 | 3.2 | 0.00 | 0.00 | 0.00 | 92 | 1013.3 |
| 20260901113101 | 16 | 0 | 0.0 | 3.2 | 0.00 | 0.00 | 0.00 | 92 | 1013.2 |
| 20260901112557 | 16 | 339 | 0.0 | 1.6 | 0.00 | 0.00 | 0.00 | 91 | 1013.3 |
| 20260901112059 | 16 | 0 | 0.0 | 3.2 | 0.00 | 0.00 | 0.00 | 91 | 1013.3 |
| 20260901111608 | 16 | 0 | 0.0 | 3.2 | 0.00 | 0.00 | 0.00 | 91 | 1013.3 |
| 20260901111054 | 16 | 0 | 0.0 | 3.2 | 0.00 | 0.00 | 0.00 | 91 | 1013.2 |
| 20260901110554 | 16 | 0 | 0.0 | 0.0 | 0.00 | 0.00 | 0.00 | 92 | 1013.3 |
| 20260901110103 | 16 | 0 | 0.0 | 0.0 | 0.00 | 0.00 | 0.00 | 92 | 1013.3 |
| 20260901105555 | 16 | 0 | 0.0 | 0.0 | 0.00 | 0.00 | 0.00 | 91 | 1013.4 |
| 20260901105055 | 16 | 0 | 0.0 | 0.0 | 0.00 | 0.00 | 0.00 | 91 | 1013.3 |
| 20260901104605 | 16 | 0 | 0.0 | 0.0 | 0.00 | 0.00 | 0.00 | 91 | 1013.3 |
| 20260901104055 | 16 | 0 | 0.0 | 0.0 | 0.00 | 0.00 | 0.00 | 91 | 1013.4 |
| 20260901103554 | 16 | 0 | 0.0 | 0.0 | 0.00 | 0.00 | 0.00 | 91 | 1013.5 |
| 20260901103101 | 16 | 0 | 0.0 | 0.0 | 0.00 | 0.00 | 0.00 | 91 | 1013.5 |
| 20260901102555 | 16 | 0 | 0.0 | 1.6 | 0.00 | 0.00 | 0.00 | 92 | 1013.5 |
| 20260901102055 | 16 | 0 | 0.0 | 1.6 | 0.00 | 0.00 | 0.00 | 92 | 1013.5 |
| 20260901101607 | 16 | 0 | 0.0 | 3.2 | 0.00 | 0.00 | 0.00 | 92 | 1013.5 |
| 20260901101054 | 16 | 0 | 0.0 | 3.2 | 0.00 | 0.00 | 0.00 | 91 | 1013.5 |
| 20260901100554 | 16 | 0 | 0.0 | 3.2 | 0.00 | 0.00 | 0.00 | 91 | 1013.5 |
| 20260901100107 | 16 | 0 | 0.0 | 3.2 | 0.00 | 0.00 | 0.00 | 91 | 1013.5 |
| 20260901095555 | 16 | 0 | 0.0 | 4.8 | 0.00 | 0.00 | 0.00 | 91 | 1013.7 |
| 20260901095055 | 16 | 0 | 0.0 | 4.8 | 0.00 | 0.00 | 0.00 | 91 | 1013.6 |
| 20260901094558 | 16 | 0 | 1.6 | 4.8 | 0.00 | 0.00 | 0.00 | 91 | 1013.6 |
| 20260901094056 | 16 | 0 | 0.0 | 0.0 | 0.00 | 0.00 | 0.00 | 91 | 1013.6 |
| 20260901093555 | 16 | 0 | 0.0 | 0.0 | 0.00 | 0.00 | 0.00 | 91 | 1013.5 |
| 20260901093103 | 16 | 0 | 0.0 | 3.2 | 0.00 | 0.00 | 0.00 | 91 | 1013.4 |
| 20260901092555 | 16 | 0 | 0.0 | 3.2 | 0.00 | 0.00 | 0.00 | 91 | 1013.4 |
| 20260901092055 | 16 | 0 | 0.0 | 0.0 | 0.00 | 0.00 | 0.00 | 91 | 1013.4 |
| 20260901091556 | 16 | 0 | 0.0 | 1.6 | 0.00 | 0.00 | 0.00 | 90 | 1013.4 |
| 20260901091056 | 16 | 0 | 0.0 | 1.6 | 0.00 | 0.00 | 0.00 | 90 | 1013.4 |
| 20260901090554 | 16 | 0 | 0.0 | 4.8 | 0.00 | 0.00 | 0.00 | 90 | 1013.5 |
| 20260901090107 | 16 | 0 | 0.0 | 4.8 | 0.00 | 0.00 | 0.00 | 90 | 1013.5 |
| 20260901085554 | 16 | 0 | 0.0 | 0.0 | 0.00 | 0.00 | 0.00 | 90 | 1013.6 |
| 20260901085055 | 17 | 0 | 0.0 | 0.0 | 0.00 | 0.00 | 0.00 | 90 | 1013.6 |
| 20260901084627 | 17 | 0 | 0.0 | 0.0 | 0.00 | 0.00 | 0.00 | 90 | 1013.6 |
| 20260901084055 | 17 | 0 | 0.0 | 0.0 | 0.00 | 0.00 | 0.00 | 90 | 1013.5 |
| 20260901083555 | 17 | 0 | 0.0 | 0.0 | 0.00 | 0.00 | 0.00 | 90 | 1013.5 |
| 20260901083059 | 17 | 0 | 0.0 | 0.0 | 0.00 | 0.00 | 0.00 | 90 | 1013.5 |
| 20260901082554 | 17 | 0 | 0.0 | 0.0 | 0.00 | 0.00 | 0.00 | 90 | 1013.5 |
| 20260901082054 | 17 | 0 | 0.0 | 4.8 | 0.00 | 0.00 | 0.00 | 90 | 1013.6 |
| 20260901081556 | 17 | 0 | 0.0 | 4.8 | 0.00 | 0.00 | 0.00 | 90 | 1013.5 |
| 20260901081054 | 17 | 342 | 0.0 | 4.8 | 0.00 | 0.00 | 0.00 | 90 | 1013.5 |
| 20260901080554 | 17 | 0 | 0.0 | 0.0 | 0.00 | 0.00 | 0.00 | 90 | 1013.6 |
| 20260901080111 | 17 | 0 | 0.0 | 0.0 | 0.00 | 0.00 | 0.00 | 90 | 1013.6 |
| 20260901075555 | 17 | 0 | 0.0 | 0.0 | 0.00 | 0.00 | 0.00 | 89 | 1013.6 |
| 20260901075057 | 17 | 0 | 0.0 | 0.0 | 0.00 | 0.00 | 0.00 | 89 | 1013.7 |
| 20260901074628 | 17 | 0 | 0.0 | 0.0 | 0.00 | 0.00 | 0.00 | 89 | 1013.7 |
| 20260901074056 | 17 | 0 | 0.0 | 0.0 | 0.00 | 0.00 | 0.00 | 89 | 1013.8 |
| 20260901073556 | 17 | 0 | 0.0 | 0.0 | 0.00 | 0.00 | 0.00 | 89 | 1013.8 |
| 20260901073101 | 17 | 0 | 0.0 | 0.0 | 0.00 | 0.00 | 0.00 | 89 | 1013.9 |
| 20260901072558 | 17 | 0 | 0.0 | 0.0 | 0.00 | 0.00 | 0.00 | 89 | 1013.9 |
| 20260901072055 | 17 | 0 | 0.0 | 0.0 | 0.00 | 0.00 | 0.00 | 89 | 1013.8 |
| 20260901071608 | 17 | 0 | 0.0 | 0.0 | 0.00 | 0.00 | 0.00 | 89 | 1013.8 |
| 20260901071054 | 17 | 0 | 0.0 | 0.0 | 0.00 | 0.00 | 0.00 | 89 | 1013.8 |
| 20260901070555 | 17 | 0 | 0.0 | 0.0 | 0.00 | 0.00 | 0.00 | 89 | 1013.7 |
| 20260901070058 | 17 | 0 | 0.0 | 0.0 | 0.00 | 0.00 | 0.00 | 89 | 1013.7 |
| 20260901065555 | 17 | 0 | 0.0 | 0.0 | 0.00 | 0.00 | 0.00 | 88 | 1013.5 |
| 20260901065055 | 17 | 0 | 0.0 | 0.0 | 0.00 | 0.00 | 0.00 | 89 | 1013.5 |
| 20260901064559 | 17 | 0 | 0.0 | 0.0 | 0.00 | 0.00 | 0.00 | 89 | 1013.4 |
| 20260901064059 | 17 | 0 | 0.0 | 0.0 | 0.00 | 0.00 | 0.00 | 89 | 1013.4 |
| 20260901063554 | 17 | 0 | 0.0 | 0.0 | 0.00 | 0.00 | 0.00 | 89 | 1013.3 |
| 20260901063105 | 17 | 0 | 0.0 | 0.0 | 0.00 | 0.00 | 0.00 | 88 | 1013.2 |
| 20260901062556 | 17 | 0 | 0.0 | 0.0 | 0.00 | 0.00 | 0.00 | 88 | 1013.2 |
| 20260901062056 | 17 | 0 | 0.0 | 0.0 | 0.00 | 0.00 | 0.00 | 88 | 1013.2 |
| 20260901061611 | 18 | 0 | 0.0 | 0.0 | 0.00 | 0.00 | 0.00 | 88 | 1013.2 |
| 20260901061056 | 18 | 0 | 0.0 | 0.0 | 0.00 | 0.00 | 0.00 | 88 | 1013.2 |
| 20260901060556 | 18 | 0 | 0.0 | 0.0 | 0.00 | 0.00 | 0.00 | 88 | 1013.1 |
| 20260901060103 | 18 | 0 | 0.0 | 0.0 | 0.00 | 0.00 | 0.00 | 88 | 1013.0 |
| 20260901055555 | 18 | 0 | 0.0 | 0.0 | 0.00 | 0.00 | 0.00 | 88 | 1013.0 |
| 20260901055055 | 18 | 0 | 0.0 | 0.0 | 0.00 | 0.00 | 0.00 | 87 | 1013.1 |
| 20260901054604 | 18 | 0 | 0.0 | 1.6 | 0.00 | 0.00 | 0.00 | 87 | 1013.1 |
| 20260901054058 | 18 | 0 | 0.0 | 4.8 | 0.00 | 0.00 | 0.00 | 87 | 1013.1 |
| 20260901053556 | 18 | 0 | 0.0 | 4.8 | 0.00 | 0.00 | 0.00 | 87 | 1013.1 |
| 20260901053107 | 18 | 344 | 0.0 | 3.2 | 0.00 | 0.00 | 0.00 | 87 | 1013.0 |
| 20260901052555 | 18 | 324 | 0.0 | 4.8 | 0.00 | 0.00 | 0.00 | 87 | 1012.9 |
| 20260901052055 | 18 | 0 | 0.0 | 4.8 | 0.00 | 0.00 | 0.00 | 87 | 1012.9 |
| 20260901051612 | 18 | 0 | 0.0 | 3.2 | 0.00 | 0.00 | 0.00 | 86 | 1012.9 |
| 20260901051055 | 18 | 0 | 0.0 | 4.8 | 0.00 | 0.00 | 0.00 | 86 | 1013.1 |
| 20260901050555 | 18 | 243 | 0.0 | 6.4 | 0.00 | 0.00 | 0.00 | 86 | 1012.9 |
| 20260901050104 | 18 | 140 | 1.6 | 6.4 | 0.00 | 0.00 | 0.00 | 87 | 1012.9 |
| 20260901045555 | 18 | 0 | 0.0 | 8.0 | 0.00 | 0.00 | 0.00 | 86 | 1012.8 |
| 20260901045054 | 18 | 0 | 0.0 | 8.0 | 0.00 | 0.00 | 0.00 | 87 | 1012.8 |
| 20260901044604 | 18 | 175 | 0.0 | 4.8 | 0.00 | 0.00 | 0.00 | 87 | 1012.7 |
| 20260901044055 | 18 | 0 | 0.0 | 1.6 | 0.00 | 0.00 | 0.00 | 86 | 1012.7 |
| 20260901043555 | 18 | 0 | 0.0 | 3.2 | 0.00 | 0.00 | 0.00 | 86 | 1012.6 |
| 20260901043056 | 18 | 0 | 0.0 | 3.2 | 0.00 | 0.00 | 0.00 | 87 | 1012.5 |
| 20260901042555 | 18 | 0 | 0.0 | 0.0 | 0.00 | 0.00 | 0.00 | 87 | 1012.5 |
| 20260901042054 | 18 | 0 | 0.0 | 0.0 | 0.00 | 0.00 | 0.00 | 87 | 1012.5 |
| 20260901041619 | 18 | 0 | 0.0 | 0.0 | 0.00 | 0.00 | 0.00 | 86 | 1012.4 |
| 20260901041057 | 18 | 0 | 0.0 | 0.0 | 0.00 | 0.00 | 0.00 | 86 | 1012.2 |
| 20260901040555 | 19 | 0 | 0.0 | 0.0 | 0.00 | 0.00 | 0.00 | 86 | 1012.1 |
| 20260901040137 | 19 | 0 | 0.0 | 0.0 | 0.00 | 0.00 | 0.00 | 86 | 1012.1 |
| 20260901035556 | 19 | 0 | 0.0 | 0.0 | 0.00 | 0.00 | 0.00 | 86 | 1012.2 |
| 20260901035054 | 19 | 0 | 0.0 | 3.2 | 0.00 | 0.00 | 0.00 | 86 | 1012.1 |
| 20260901034559 | 19 | 0 | 0.0 | 4.8 | 0.00 | 0.00 | 0.00 | 86 | 1012.0 |
| 20260901034058 | 19 | 0 | 1.6 | 4.8 | 0.00 | 0.00 | 0.00 | 86 | 1011.9 |
| 20260901033554 | 19 | 0 | 1.6 | 4.8 | 0.00 | 0.00 | 0.00 | 86 | 1012.0 |
| 20260901033059 | 19 | 0 | 0.0 | 3.2 | 0.00 | 0.00 | 0.00 | 86 | 1011.8 |
| 20260901032556 | 19 | 0 | 0.0 | 3.2 | 0.00 | 0.00 | 0.00 | 86 | 1011.8 |
| 20260901032053 | 19 | 0 | 0.0 | 0.0 | 0.00 | 0.00 | 0.00 | 86 | 1011.7 |
| 20260901031602 | 19 | 0 | 0.0 | 3.2 | 0.00 | 0.00 | 0.00 | 85 | 1011.7 |
| 20260901031056 | 19 | 0 | 0.0 | 4.8 | 0.00 | 0.00 | 0.00 | 85 | 1011.8 |
| 20260901030555 | 19 | 0 | 1.6 | 9.7 | 0.00 | 0.00 | 0.00 | 85 | 1011.7 |
| 20260901030106 | 19 | 0 | 0.0 | 9.7 | 0.00 | 0.00 | 0.00 | 85 | 1011.7 |
| 20260901025552 | 19 | 254 | 4.8 | 9.7 | 0.00 | 0.00 | 0.00 | 85 | 1011.7 |
| 20260901025056 | 20 | 277 | 1.6 | 9.7 | 0.00 | 0.00 | 0.00 | 85 | 1011.5 |
| 20260901024606 | 20 | 207 | 4.8 | 11.3 | 0.00 | 0.00 | 0.00 | 85 | 1011.6 |
| 20260901024052 | 20 | 0 | 3.2 | 16.1 | 0.00 | 0.00 | 0.00 | 84 | 1011.4 |
| 20260901023553 | 20 | 254 | 8.0 | 16.1 | 0.00 | 0.00 | 0.00 | 84 | 1011.4 |
| 20260901023103 | 20 | 296 | 4.8 | 17.7 | 0.00 | 0.00 | 0.00 | 84 | 1011.4 |
| 20260901022552 | 20 | 309 | 4.8 | 17.7 | 0.00 | 0.00 | 0.00 | 84 | 1011.5 |
| 20260901022052 | 20 | 289 | 4.8 | 14.5 | 0.00 | 0.00 | 0.00 | 83 | 1011.6 |
| 20260901021601 | 20 | 267 | 1.6 | 16.1 | 0.00 | 0.00 | 0.00 | 82 | 1011.6 |
| 20260901021052 | 20 | 303 | 4.8 | 17.7 | 0.00 | 0.00 | 0.00 | 82 | 1011.6 |
| 20260901020556 | 20 | 300 | 8.0 | 17.7 | 0.00 | 0.00 | 0.00 | 81 | 1011.6 |
| 20260901020101 | 21 | 216 | 8.0 | 17.7 | 0.00 | 0.00 | 0.00 | 81 | 1011.5 |
| 20260901015555 | 21 | 155 | 9.7 | 19.3 | 0.00 | 0.00 | 0.00 | 80 | 1011.5 |
| 20260901015055 | 21 | 287 | 6.4 | 19.3 | 0.00 | 0.00 | 0.00 | 81 | 1011.5 |
| 20260901014602 | 21 | 209 | 4.8 | 17.7 | 0.00 | 0.00 | 0.00 | 81 | 1011.6 |
| 20260901014055 | 21 | 269 | 6.4 | 16.1 | 0.00 | 0.00 | 0.00 | 80 | 1011.5 |
| 20260901013555 | 21 | 283 | 8.0 | 14.5 | 0.00 | 0.00 | 0.00 | 79 | 1011.5 |
| 20260901013101 | 21 | 0 | 8.0 | 17.7 | 0.00 | 0.00 | 0.00 | 78 | 1011.6 |
| 20260901012555 | 21 | 232 | 8.0 | 17.7 | 0.00 | 0.00 | 0.00 | 78 | 1011.5 |
| 20260901012055 | 22 | 279 | 8.0 | 17.7 | 0.00 | 0.00 | 0.00 | 76 | 1011.5 |
| 20260901011556 | 22 | 261 | 4.8 | 12.9 | 0.00 | 0.00 | 0.00 | 78 | 1011.6 |
| 20260901011055 | 22 | 177 | 4.8 | 16.1 | 0.00 | 0.00 | 0.00 | 78 | 1011.6 |
| 20260901010555 | 22 | 246 | 8.0 | 16.1 | 0.00 | 0.00 | 0.00 | 77 | 1011.7 |
| 20260901010113 | 22 | 161 | 6.4 | 14.5 | 0.00 | 0.00 | 0.00 | 76 | 1011.7 |
| 20260901005555 | 22 | 206 | 8.0 | 14.5 | 0.00 | 0.00 | 0.00 | 75 | 1011.7 |
| 20260901005055 | 22 | 209 | 6.4 | 16.1 | 0.00 | 0.00 | 0.00 | 75 | 1011.7 |
| 20260901004603 | 22 | 252 | 8.0 | 17.7 | 0.00 | 0.00 | 0.00 | 75 | 1011.7 |
| 20260901004054 | 22 | 261 | 6.4 | 17.7 | 0.00 | 0.00 | 0.00 | 75 | 1011.6 |
| 20260901003554 | 22 | 252 | 6.4 | 17.7 | 0.00 | 0.00 | 0.00 | 75 | 1011.6 |
| 20260901003059 | 22 | 253 | 6.4 | 17.7 | 0.00 | 0.00 | 0.00 | 75 | 1011.6 |
| 20260901002554 | 22 | 196 | 4.8 | 19.3 | 0.00 | 0.00 | 0.00 | 75 | 1011.6 |
| 20260901002056 | 22 | 255 | 6.4 | 19.3 | 0.00 | 0.00 | 0.00 | 74 | 1011.8 |
| 20260901001603 | 22 | 175 | 8.0 | 19.3 | 0.00 | 0.00 | 0.00 | 74 | 1011.7 |
| 20260901001058 | 22 | 272 | 6.4 | 19.3 | 0.00 | 0.00 | 0.00 | 75 | 1011.8 |
| 20260901000556 | 23 | 205 | 9.7 | 17.7 | 0.00 | 0.00 | 0.00 | 73 | 1011.9 |
| 20260901000113 | 23 | 196 | 6.4 | 19.3 | 0.00 | 0.00 | 0.00 | 74 | 1011.8 |
| 20260831235556 | 23 | 211 | 11.3 | 27.4 | 0.00 | 0.00 | 0.00 | 72 | 1011.8 |
| 20260831235056 | 23 | 247 | 11.3 | 27.4 | 0.00 | 0.00 | 0.00 | 71 | 1011.8 |
| 20260831234556 | 23 | 173 | 14.5 | 27.4 | 0.00 | 0.00 | 0.00 | 69 | 1011.8 |
| 20260831234056 | 23 | 228 | 11.3 | 22.5 | 0.00 | 0.00 | 0.00 | 68 | 1011.8 |
| 20260831233554 | 23 | 194 | 9.7 | 19.3 | 0.00 | 0.00 | 0.00 | 64 | 1011.7 |
| 20260831233111 | 23 | 252 | 9.7 | 20.9 | 0.00 | 0.00 | 0.00 | 66 | 1011.7 |
| 20260831232554 | 23 | 261 | 12.9 | 20.9 | 0.00 | 0.00 | 0.00 | 64 | 1011.6 |
| 20260831232054 | 24 | 294 | 9.7 | 20.9 | 0.00 | 0.00 | 0.00 | 68 | 1011.7 |
| 20260831231553 | 23 | 261 | 6.4 | 20.9 | 0.00 | 0.00 | 0.00 | 67 | 1011.6 |
| 20260831231056 | 23 | 200 | 11.3 | 20.9 | 0.00 | 0.00 | 0.00 | 65 | 1011.6 |
| 20260831230558 | 24 | 296 | 9.7 | 17.7 | 0.00 | 0.00 | 0.00 | 67 | 1011.8 |
| 20260831230115 | 24 | 161 | 8.0 | 20.9 | 0.00 | 0.00 | 0.00 | 64 | 1011.7 |
| 20260831225556 | 23 | 275 | 8.0 | 22.5 | 0.00 | 0.00 | 0.00 | 63 | 1011.7 |